RH
5 4 5 8 29 20 16 25 29 32 31 30 33 36 35 35 26 41 28 29 41 47 46 42 30 14 3 2 3 4 4 4 5 5 5 5 5 5 4 4 4 3 3 3 2 2 2 2 2
6 6 7 11 19 12 14 23 35 28 25 28 34 36 36 26 22 24 27 33 38 41 41 32 20 6 2 3 4 4 4 5 6 6 6 6 6 5 4 4 4 4 4 4 4 3 2 2 2
11 10 14 24 19 14 17 24 23 22 25 31 35 36 32 24 25 25 26 29 34 35 30 22 8 2 3 4 4 4 5 6 6 6 6 6 6 5 5 5 6 6 6 7 7 6 6 5 4
12 13 15 19 15 20 27 22 23 22 26 33 37 36 28 28 27 26 25 29 33 31 21 9 3 3 4 4 4 5 5 6 6 7 7 7 6 6 6 7 8 8 8 8 8 8 8 8 8
14 16 19 17 18 19 18 19 19 25 29 35 38 31 32 31 28 28 28 31 30 23 12 4 3 4 4 4 5 5 5 6 7 8 8 7 6 7 8 9 9 9 8 8 7 7 7 7 7
23 19 19 16 16 18 16 16 21 27 31 35 34 34 34 31 32 31 30 30 25 13 4 3 4 4 4 5 5 5 6 7 8 9 8 8 8 9 10 10 9 9 8 7 7 6 6 6 6
22 20 18 16 17 26 18 22 24 28 33 34 36 36 34 34 32 31 32 30 17 5 3 4 5 5 6 5 5 6 7 9 9 8 8 9 10 10 10 10 10 9 9 8 8 7 7 7 6
22 21 18 20 19 23 20 19 22 29 32 36 37 37 35 34 30 30 32 24 7 3 4 5 6 6 5 5 6 7 9 10 9 9 9 10 10 11 11 11 10 10 9 9 8 8 7 7 6
17 20 17 18 23 28 19 20 24 27 32 36 38 39 37 30 25 23 27 14 5 5 7 7 6 5 5 6 8 10 11 11 10 10 10 11 11 12 12 12 11 10 10 9 8 7 6 5 4
23 20 20 18 17 25 19 22 23 28 34 38 39 38 32 24 20 19 20 9 8 9 8 6 5 5 7 8 10 12 12 11 11 11 12 12 12 13 13 12 11 11 9 8 6 5 4 3 2
23 20 20 18 19 20 22 23 25 31 35 38 35 34 25 21 18 14 12 11 11 8 6 6 7 8 9 10 12 13 12 12 11 12 12 12 13 14 13 12 11 9 7 5 3 3 2 2 2
22 20 19 18 19 23 24 24 26 29 31 30 30 26 21 15 13 9 12 12 9 8 10 10 11 11 11 12 14 13 12 12 12 12 12 13 14 14 13 11 9 6 4 3 2 2 2 2 2
20 18 19 19 21 25 27 26 28 26 25 23 23 22 18 15 10 8 12 11 8 12 14 15 16 15 13 14 15 14 13 13 14 13 13 14 14 14 11 8 6 4 3 2 2 2 3 3 4
19 20 20 20 22 26 28 28 27 25 24 24 22 19 18 14 7 9 12 11 14 18 21 22 23 22 16 15 16 15 14 14 14 14 14 14 14 12 9 6 4 3 2 2 3 4 4 4 4
19 23 23 24 25 27 29 26 25 24 24 24 19 18 19 13 6 12 12 15 20 25 28 30 33 33 26 17 17 16 15 15 15 14 14 14 12 9 6 4 3 3 3 4 4 4 4 4 3
24 23 23 25 28 29 31 26 28 26 26 25 22 20 20 12 7 11 15 20 25 31 35 38 41 42 35 19 18 16 15 16 15 14 14 12 9 6 4 3 3 4 5 5 5 5 5 4 3
28 18 22 26 29 31 29 28 27 26 27 27 25 20 21 15 7 13 20 23 28 34 40 42 45 50 43 21 18 16 16 17 15 14 12 10 7 5 3 4 5 6 6 6 6 8 8 7 6
19 24 24 26 27 31 29 30 28 28 28 28 27 22 22 16 9 17 22 25 30 37 43 44 48 55 47 22 18 16 17 17 14 13 10 8 5 4 4 6 7 8 8 9 10 11 15 17 16
31 29 27 27 29 33 31 30 28 29 28 28 28 27 24 22 13 14 21 28 32 40 43 47 51 58 45 24 18 17 19 16 14 11 8 6 4 4 6 8 9 10 11 15 17 20 23 29 32
33 32 29 30 35 37 32 31 29 29 28 28 29 28 25 25 20 17 22 29 34 40 44 49 54 60 38 22 17 18 19 15 12 10 7 4 4 4 7 10 11 12 18 24 29 37 44 54 61
28 34 31 32 28 36 37 34 29 28 28 28 29 38 34 25 25 20 24 31 36 40 45 50 55 63 33 21 17 20 17 13 11 7 5 4 4 6 10 11 12 18 26 34 46 57 70 75 80
32 43 44 41 40 26 33 30 28 30 31 30 30 32 32 26 27 22 25 31 35 38 43 50 58 61 29 19 18 20 15 13 10 7 4 3 5 10 12 11 15 27 38 49 63 79 84 87 89
36 38 42 42 45 44 40 38 32 36 30 34 31 31 30 27 28 24 27 33 34 38 42 51 62 46 24 17 21 18 14 12 8 5 4 4 8 12 13 12 21 37 49 66 87 90 96 99 97
42 48 41 46 41 50 44 39 41 37 43 44 37 30 31 28 28 24 29 32 34 38 43 53 64 34 20 18 21 16 14 11 7 4 3 4 10 14 12 13 29 46 63 89 96 98 98 98 96
52 41 50 61 67 66 51 49 49 62 59 57 35 33 29 29 29 25 30 32 35 38 46 60 54 26 18 21 19 16 14 10 6 4 3 5 11 15 10 14 35 56 83 99 96 98 97 97 96
50 52 56 84 58 49 57 50 62 63 56 52 35 32 26 27 28 27 30 32 35 40 52 65 33 21 19 22 18 16 13 8 5 3 4 7 14 15 10 16 45 69 92 95 98 98 97 96 96
58 59 65 69 75 71 56 56 66 68 64 43 27 31 26 28 26 27 30 32 36 47 63 45 25 18 21 21 17 15 11 7 4 3 4 8 17 15 11 22 53 79 96 98 97 96 96 96 96
64 72 80 89 100 97 72 76 86 66 59 50 28 32 29 28 24 28 30 34 42 57 55 29 21 19 22 20 17 15 10 6 4 3 3 9 18 16 11 25 60 94 97 97 96 95 96 96 97
80 89 72 80 91 99 92 78 82 72 59 39 28 29 28 25 25 28 30 38 53 59 33 23 19 21 22 19 17 14 8 6 4 3 3 8 18 17 12 33 79 99 96 96 95 96 96 96 96
76 87 81 86 98 97 95 84 65 66 64 54 30 26 26 25 27 29 34 47 58 38 26 21 20 22 22 19 17 13 8 6 5 3 3 5 18 17 14 43 98 96 96 95 96 97 96 96 95
Wind_Speed
7 7 6 5 3 5 7 4 7 7 9 9 9 9 8 9 10 9 16 17 16 15 15 15 14 13 11 8 8 9 11 12 13 13 14 14 14 15 14 14 14 14 15 17 18 19 19 20 20
7 7 7 6 6 10 2 5 2 9 12 13 11 8 10 11 11 14 16 16 16 16 16 15 14 12 9 8 9 11 12 13 14 15 16 16 16 17 17 17 16 16 17 18 19 20 22 23 24
10 9 7 3 4 10 9 9 11 13 14 12 10 10 11 11 14 14 15 16 16 16 15 15 13 11 9 9 10 11 13 14 15 17 18 18 18 18 18 18 18 18 19 20 21 22 23 24 25
9 9 8 4 9 9 6 12 14 14 12 11 11 11 10 14 14 15 16 15 15 15 14 12 10 8 8 10 11 13 14 15 16 17 19 20 20 19 19 19 19 20 22 23 25 26 27 27 28
8 8 8 10 10 11 14 15 14 11 11 11 10 11 12 13 14 15 15 15 15 14 12 11 8 8 9 11 13 14 16 17 18 19 20 20 20 20 21 22 23 24 25 26 27 28 30 30 32
7 7 11 12 10 16 18 16 11 10 11 11 11 12 14 14 16 16 15 15 14 12 10 8 7 8 10 12 14 15 16 18 19 20 20 20 20 21 22 24 26 27 28 29 31 32 33 33 33
8 10 13 13 12 9 14 13 11 11 11 12 12 13 13 16 18 17 15 13 12 10 8 7 8 10 11 13 14 16 18 19 20 21 21 21 22 24 25 27 29 31 32 33 34 34 34 35 35
8 8 12 11 11 10 13 13 12 11 12 13 11 10 16 18 18 16 13 11 10 9 8 7 9 11 13 14 15 17 18 20 21 21 22 23 24 26 28 29 32 33 35 36 37 36 36 34 35
9 10 14 12 9 9 14 13 12 11 12 12 12 13 15 16 15 13 11 10 8 7 6 8 9 10 12 13 15 16 17 19 20 21 22 25 26 28 30 32 34 35 37 38 38 37 37 35 34
7 12 12 14 13 10 13 12 12 11 11 11 12 14 15 13 12 11 10 9 7 6 7 7 8 9 11 13 14 16 18 20 21 23 25 26 29 31 33 35 36 36 37 37 36 36 36 35 33
13 12 16 16 14 13 13 12 11 9 10 11 14 15 13 12 11 10 9 7 6 6 6 6 6 8 11 13 16 19 21 23 24 25 27 29 31 33 35 37 38 37 37 36 34 34 34 33 33
13 17 17 16 15 13 13 13 11 10 11 11 13 13 11 12 9 8 8 7 7 5 3 5 7 10 12 15 19 21 22 24 25 27 28 31 33 36 38 39 39 38 37 35 34 33 32 31 30
16 19 17 16 14 14 13 13 12 12 10 10 12 11 11 10 7 8 8 8 8 5 3 6 10 13 15 17 20 21 23 25 27 28 30 32 35 37 39 39 38 38 36 34 33 32 30 29 28
18 18 18 16 16 16 14 15 15 13 12 11 10 11 11 9 8 9 9 9 7 4 3 7 12 15 17 20 22 24 25 27 28 30 32 34 37 38 39 39 38 36 35 34 31 29 28 27 27
16 13 14 14 15 17 14 17 12 11 10 10 9 10 10 8 9 11 12 10 7 3 4 8 13 18 21 23 25 26 28 29 31 33 34 36 37 39 39 38 37 36 34 33 31 29 28 26 26
13 16 14 12 12 16 12 13 17 13 10 10 9 10 9 8 12 13 11 10 6 2 5 11 16 21 24 26 27 29 30 31 32 34 36 37 38 39 38 37 36 35 34 33 30 29 28 28 27
12 16 12 12 10 13 12 11 16 12 12 13 10 11 10 10 13 13 11 9 5 2 7 12 18 23 28 28 29 30 31 32 33 35 36 38 39 39 37 36 35 34 33 32 30 28 29 28 28
13 13 13 12 11 12 12 15 18 15 18 17 15 13 12 11 13 13 11 9 5 3 8 14 19 25 29 30 31 32 33 34 35 36 37 38 38 37 35 33 33 32 31 31 29 27 27 28 28
10 13 16 17 17 19 18 17 13 17 18 22 20 16 14 13 15 13 12 9 5 4 9 15 20 26 31 31 30 32 34 34 35 36 37 37 36 34 32 32 32 32 31 30 28 27 26 26 28
10 14 17 18 17 17 15 19 18 19 21 18 18 18 16 17 13 12 13 9 5 5 10 16 21 27 29 30 30 31 32 33 33 35 37 36 34 34 34 33 31 31 30 28 27 28 28 27 27
11 14 16 21 19 21 20 23 18 14 11 13 19 20 20 17 12 12 11 8 4 7 12 16 22 28 29 29 31 32 33 34 35 35 36 36 35 33 32 31 32 32 31 29 28 29 28 26 21
12 10 17 19 17 19 9 16 11 11 10 14 17 22 24 20 17 14 12 8 7 9 13 17 23 29 29 29 30 30 31 32 33 35 36 35 32 30 29 30 32 33 32 31 30 28 26 25 21
14 15 15 16 13 13 15 10 12 10 2 3 8 12 20 21 18 11 9 8 8 12 14 18 23 28 28 28 28 29 31 32 34 35 34 31 29 28 29 30 32 33 32 30 29 27 25 25 24
12 12 16 13 6 8 9 9 9 4 5 6 11 9 12 22 19 13 9 6 7 12 14 18 25 27 27 27 28 29 30 32 34 33 31 30 28 27 27 29 31 32 31 30 28 26 25 25 25
8 14 10 5 3 4 1 4 5 6 13 8 8 6 12 20 16 10 7 6 10 12 14 19 25 25 25 26 28 29 31 33 33 33 33 31 28 26 28 30 32 31 31 31 29 27 26 25 25
10 9 6 5 6 7 5 4 2 5 13 9 8 7 13 16 14 11 8 8 10 11 14 20 23 23 23 25 27 30 31 32 33 34 33 31 29 28 31 32 32 33 33 31 28 28 28 26 24
6 6 6 9 10 9 6 1 3 7 13 5 6 7 14 16 15 10 6 8 9 10 14 20 20 20 22 25 28 28 29 31 32 33 32 30 28 28 31 33 34 33 32 30 28 28 26 24 23
6 7 5 4 3 3 3 3 3 6 18 8 4 5 13 16 14 8 6 6 6 10 16 17 17 19 22 25 26 27 28 31 32 33 32 29 27 27 31 33 34 33 31 29 30 27 24 23 21
6 5 7 4 3 3 3 2 7 6 16 13 6 8 15 14 11 7 4 3 5 11 14 15 16 20 22 24 24 26 28 30 33 33 31 29 26 28 33 35 35 32 31 31 30 28 25 17 13
9 7 9 5 1 5 4 5 1 5 15 12 5 11 15 13 10 6 4 3 7 11 12 13 17 19 21 22 23 25 28 31 33 32 31 29 27 30 34 35 35 30 30 32 33 26 17 14 12
Wind_Direction
326 326 324 317 303 258 267 274 266 268 273 273 266 258 260 274 280 260 296 297 292 287 286 290 290 287 286 289 300 308 312 315 316 315 312 312 311 307 300 289 283 280 274 270 266 261 257 255 254
336 335 327 314 275 273 22 300 271 272 287 283 275 267 275 288 294 294 298 299 296 294 292 292 290 290 291 300 310 313 314 315 313 311 309 309 308 305 301 299 296 290 284 276 270 267 263 257 253
342 340 343 286 276 312 324 293 290 295 294 283 276 279 286 297 308 310 310 300 294 290 288 285 285 286 294 305 308 309 309 308 306 305 304 304 304 303 302 300 297 293 289 284 281 277 271 266 262
327 329 326 291 299 297 295 289 293 293 281 269 272 282 291 310 314 316 311 302 293 286 279 275 275 283 294 300 303 304 303 302 300 301 304 307 306 304 302 298 296 294 291 289 288 284 280 276 271
301 303 286 284 295 299 303 300 301 285 277 277 279 289 299 312 317 316 306 295 285 278 276 275 277 288 297 301 302 302 301 302 304 305 305 304 305 304 302 300 298 295 293 290 288 285 283 279 276
302 289 281 294 313 304 305 304 297 285 282 280 284 297 308 313 316 311 299 286 278 276 271 266 277 290 296 300 300 299 299 301 303 304 305 305 303 301 301 302 301 300 298 297 294 290 285 280 276
277 280 286 298 303 305 310 311 298 291 282 280 289 300 308 312 313 306 294 282 276 268 262 268 282 291 296 298 298 300 305 307 306 306 307 307 306 306 307 305 304 304 303 300 297 293 289 285 280
277 282 287 295 306 300 309 309 304 295 285 288 290 296 306 311 308 301 290 278 266 255 256 277 290 294 298 301 303 306 308 308 308 309 310 309 308 307 306 307 307 306 304 302 300 297 293 288 283
285 278 285 301 310 294 310 309 306 296 290 287 285 289 298 304 299 293 278 266 254 251 271 286 288 290 294 300 305 307 308 310 311 312 312 312 310 311 311 310 309 308 307 304 301 297 294 289 284
274 279 292 296 303 298 305 303 302 294 292 287 286 293 304 300 293 282 267 255 247 259 275 280 282 290 301 308 313 315 315 319 320 319 317 316 315 314 314 312 311 309 306 303 299 295 291 288 284
275 275 285 296 302 303 302 297 293 289 289 285 293 299 303 299 292 275 255 237 240 255 266 282 301 313 318 322 325 325 327 327 324 323 321 320 319 318 316 315 313 311 308 304 301 296 292 288 284
272 276 283 295 300 300 297 296 294 287 279 289 292 297 297 298 284 252 227 222 231 238 274 321 333 331 330 334 334 332 331 329 326 325 324 323 322 321 319 317 316 313 310 306 303 299 294 289 284
267 276 284 296 295 297 296 295 295 295 295 293 295 295 298 300 268 229 217 221 224 236 299 338 348 348 344 341 337 335 333 331 329 328 327 326 325 323 320 319 317 314 311 308 304 299 294 289 284
269 279 284 290 290 295 298 299 303 291 288 286 290 288 295 297 244 216 207 214 223 239 315 350 357 356 349 343 340 339 336 332 331 331 330 329 327 325 322 320 317 314 311 308 305 301 295 290 285
272 281 281 278 283 294 302 305 298 285 276 281 280 286 284 283 232 213 211 213 226 247 333 351 358 356 351 346 344 341 337 335 335 333 332 330 329 327 323 321 318 316 314 312 308 302 295 290 285
275 275 266 263 294 301 301 290 284 284 270 277 275 278 271 263 224 218 213 216 222 262 344 354 355 353 351 347 344 340 338 337 336 335 332 332 332 327 324 322 321 320 318 314 310 306 302 296 288
275 270 269 279 288 291 290 286 284 277 275 273 271 264 259 252 228 220 215 221 222 299 346 352 351 351 349 346 342 340 338 337 337 334 334 335 332 328 326 324 322 323 319 314 312 307 300 293 287
289 281 278 285 282 290 273 281 276 280 276 275 262 253 249 240 221 219 220 228 232 312 346 348 347 347 346 343 341 339 338 339 337 336 337 337 331 328 325 323 324 321 319 315 309 302 298 294 289
281 283 284 282 279 288 275 266 264 285 284 268 265 254 241 226 224 225 227 230 244 321 341 340 343 344 343 339 337 338 339 337 337 338 338 334 330 327 327 327 326 324 320 316 310 303 299 296 293
291 292 292 291 280 285 277 269 263 263 289 274 261 249 239 224 233 225 224 229 252 315 328 333 337 339 336 335 337 338 337 336 337 339 338 334 332 332 331 328 326 325 323 319 316 312 308 304 298
301 299 304 296 291 277 276 280 265 253 265 274 250 230 224 226 225 225 217 229 260 302 317 324 331 333 333 336 337 338 338 341 345 341 337 336 335 332 330 329 329 329 327 325 321 314 309 303 293
306 304 309 308 289 274 236 289 276 266 284 289 269 242 227 223 220 219 215 229 261 293 309 319 326 330 333 336 336 336 340 345 343 341 342 339 335 332 331 331 333 332 330 326 321 315 310 304 299
303 320 321 320 298 273 261 262 276 288 323 336 313 259 233 219 219 217 211 226 262 288 305 316 324 329 332 335 335 341 346 346 346 347 343 337 335 335 337 337 336 335 330 326 321 318 313 308 301
308 320 310 305 283 251 252 255 267 351 322 330 326 338 218 208 212 209 210 214 276 291 303 317 322 328 333 335 340 346 348 349 350 346 341 341 342 342 341 340 339 336 331 328 327 320 310 303 297
315 313 320 308 255 268 194 269 288 350 334 328 334 299 194 198 202 195 195 243 285 293 307 316 324 330 335 339 346 349 352 352 350 347 348 349 348 347 347 345 344 338 335 336 328 318 312 306 299
303 309 299 304 311 312 274 253 121 322 351 333 327 236 186 186 182 193 219 262 283 295 309 318 326 333 338 345 350 355 354 353 352 353 353 352 352 351 350 349 345 343 344 337 327 323 318 312 305
311 300 309 305 280 274 275 261 97 13 346 334 332 207 184 183 183 195 225 265 282 302 312 323 331 336 345 351 356 357 356 356 357 358 358 356 356 355 353 350 350 348 344 337 333 328 326 319 307
280 281 305 331 289 293 353 303 16 41 6 7 35 155 175 171 180 190 228 262 291 307 320 328 335 346 353 356 359 359 1 2 3 4 2 0 1 359 357 356 354 351 347 342 339 339 337 326 317
293 274 298 282 264 322 312 94 349 343 22 25 40 140 154 164 166 187 220 271 303 320 327 336 346 358 357 1 1 4 6 7 10 7 6 6 7 5 3 0 360 358 355 349 351 352 349 343 350
279 296 288 264 231 231 268 287 151 319 347 20 71 145 157 154 170 181 212 276 322 327 337 347 2 0 1 4 8 11 12 14 12 11 11 13 15 12 9 5 9 4 1 4 4 5 26 40 53